Wind_Speed
6 6 8 8 10 10 11 11 11 12 13 14 14 14 14 14 15 16 17 17 18 19 19 19 19 20 20 20 21 21 21 21 22 22 23 24 25 26 27 27 27 28 28
3 3 4 6 8 8 8 10 11 11 12 12 13 13 13 14 15 15 16 16 17 17 18 18 19 20 20 21 21 22 22 23 24 24 25 25 26 27 27 28 28 29 29
2 3 3 4 4 5 7 8 10 11 11 11 11 12 13 13 14 14 15 15 15 16 17 18 19 20 20 21 21 22 23 24 25 25 26 26 27 27 28 29 29 29 30
1 1 2 3 4 5 6 8 9 10 10 10 10 11 12 13 13 14 14 14 16 17 17 18 18 19 20 21 21 22 23 25 25 26 26 27 28 28 29 30 31 31 32
1 0 1 2 3 5 6 8 9 9 9 10 10 11 12 13 13 14 15 15 16 16 17 18 19 20 20 21 22 23 24 25 27 27 28 28 29 30 30 32 32 33 34
2 2 2 3 4 5 7 8 9 9 9 10 10 11 12 13 14 14 15 16 16 17 18 19 20 21 22 22 23 24 25 25 27 28 28 29 29 30 30 32 33 34 35
4 4 4 4 4 6 7 8 9 9 10 11 11 12 13 14 15 16 16 17 17 18 19 20 21 22 23 24 24 25 25 26 26 27 28 29 30 31 31 32 33 35 36
4 4 4 5 6 7 8 9 9 10 11 11 12 13 14 15 16 16 17 18 19 20 20 21 22 23 24 24 25 26 27 27 28 28 29 30 31 32 32 33 34 35 36
4 3 4 5 6 7 8 9 10 11 11 12 13 14 15 16 17 18 19 20 20 21 22 23 24 25 25 26 26 27 27 28 29 29 29 30 31 32 33 34 35 36 36
3 3 5 6 6 7 8 9 10 12 12 13 15 15 16 18 19 19 20 21 22 23 24 26 26 26 27 27 28 28 28 28 29 30 30 31 32 33 34 34 35 36 38
3 4 5 6 7 7 9 10 11 12 13 14 15 16 18 19 19 20 22 23 24 25 26 27 28 28 28 28 29 29 29 29 30 30 31 31 32 33 34 35 36 37 38
3 4 5 6 7 8 9 10 11 12 13 14 15 17 18 19 20 22 24 25 26 28 29 29 29 29 29 29 30 30 30 30 30 30 31 32 32 32 34 35 37 38 39
3 5 5 7 8 8 9 10 11 12 13 15 16 18 19 20 22 23 25 27 28 30 30 31 30 30 30 31 31 31 31 31 30 30 31 31 32 33 34 35 36 38 39
4 5 6 7 8 9 9 10 12 13 14 16 17 19 20 22 23 25 27 28 30 31 32 32 32 32 32 32 32 32 31 31 31 31 31 31 32 33 34 35 36 37 38
5 6 7 8 9 9 10 11 12 13 15 17 18 20 22 23 25 26 28 30 31 32 33 33 33 33 33 33 33 33 32 31 31 31 31 31 32 32 33 34 35 36 37
7 7 8 9 10 10 11 12 13 14 16 18 20 22 23 24 26 27 29 31 32 33 33 33 33 34 34 34 33 33 32 32 31 31 31 31 31 32 33 33 35 36 37
7 8 9 10 10 11 12 13 14 16 18 20 21 23 24 26 28 29 30 31 33 33 34 34 34 34 35 35 34 33 32 32 31 31 31 31 32 32 33 33 33 35 36
9 9 10 11 11 12 13 14 16 17 19 21 22 24 26 27 29 30 31 32 33 34 35 35 35 35 36 35 35 34 33 32 31 31 31 31 31 32 32 32 32 33 34
10 11 11 12 13 14 15 16 17 19 21 22 24 26 27 29 30 31 32 33 34 35 36 35 35 36 36 36 35 34 32 32 31 31 31 31 31 31 31 31 31 32 33
11 12 12 13 14 15 16 18 19 20 22 23 25 27 28 30 31 32 33 34 35 36 36 36 36 36 36 36 35 34 32 32 31 32 32 32 31 30 29 29 29 29 30
13 13 14 14 15 17 18 19 20 22 23 25 26 28 30 31 32 33 34 35 36 37 37 37 37 37 36 36 36 34 32 32 31 31 31 31 30 29 28 27 27 27 28
14 15 16 17 18 19 20 21 22 23 25 26 28 29 31 32 33 33 34 35 37 38 38 38 37 37 37 36 35 34 32 32 31 31 31 30 30 28 27 26 26 26 26
16 16 17 18 19 21 22 23 24 25 26 28 29 31 32 32 33 34 35 37 38 39 39 38 38 37 37 36 35 34 33 31 31 31 31 30 29 27 26 25 25 24 24
18 18 19 21 22 23 24 25 26 27 28 30 31 32 33 33 33 35 36 37 39 40 39 39 38 38 38 37 36 35 33 32 31 31 30 29 28 26 25 24 24 23 22
20 20 21 22 23 24 25 26 28 29 30 31 33 33 33 34 35 36 37 38 39 40 40 39 39 39 39 38 37 35 33 32 31 31 30 29 27 26 24 23 22 21 21
21 22 23 24 25 26 27 28 30 31 32 33 33 34 34 35 36 37 38 39 40 40 41 40 40 40 39 38 37 35 33 32 31 30 29 28 26 24 23 22 21 19 19
Wind_Direction
267 249 248 267 279 284 291 296 298 299 298 298 297 297 296 297 296 295 293 292 293 292 288 286 284 283 282 280 277 274 271 268 266 265 263 259 257 256 254 250 248 246 244
286 273 273 278 284 286 291 297 301 305 304 303 301 302 304 304 303 299 295 295 295 294 291 288 286 285 284 281 278 275 271 269 267 266 264 261 259 256 254 251 249 247 244
283 295 296 301 292 291 295 301 306 308 309 310 310 309 309 308 307 304 302 301 301 299 297 294 291 289 286 283 281 277 274 271 269 267 265 262 261 258 254 253 250 249 246
304 302 300 307 306 308 314 319 322 323 321 319 317 316 316 315 314 312 311 310 308 305 303 300 296 293 291 288 285 282 278 274 271 269 266 263 260 258 256 254 251 249 247
68 47 333 338 336 333 334 338 340 337 332 328 325 323 322 322 320 319 316 314 311 309 307 303 300 298 295 292 288 285 282 278 275 273 270 266 263 259 256 254 252 249 246
75 54 34 11 360 351 347 347 347 343 341 339 336 333 331 330 328 326 323 320 317 314 311 307 304 302 299 295 292 289 285 281 278 275 272 269 266 262 257 254 252 250 247
80 60 43 22 9 357 350 349 348 349 349 346 343 340 339 337 335 332 329 325 321 317 314 311 309 306 303 299 296 293 289 285 281 278 274 271 267 264 261 256 253 251 248
68 51 35 23 12 2 355 351 351 352 351 349 347 345 344 342 338 335 332 329 326 322 318 315 312 309 306 303 300 296 292 288 284 280 277 274 270 266 263 259 255 252 249
58 42 25 15 7 359 355 355 355 355 353 352 350 348 346 343 340 337 334 331 328 325 322 319 316 313 310 306 302 298 294 290 285 282 279 276 272 269 265 261 256 252 248
56 35 20 9 359 354 354 357 357 356 353 351 350 347 344 342 341 339 336 334 331 329 326 322 318 314 312 309 306 302 298 293 288 284 280 277 274 270 266 262 258 253 249
42 24 15 4 354 350 352 354 353 351 349 348 347 345 343 341 339 338 336 335 333 331 329 326 322 318 314 311 308 305 301 296 291 287 283 279 275 271 268 264 259 255 251
23 10 2 354 349 349 349 348 346 344 343 343 342 342 341 341 339 338 337 335 333 331 329 327 324 320 317 313 310 308 304 299 295 290 286 281 277 273 269 265 261 257 253
9 356 348 346 346 344 343 341 340 339 339 338 338 339 339 338 338 338 337 335 333 331 330 328 326 322 320 316 313 310 306 302 298 293 288 283 278 274 270 266 262 257 254
351 339 337 339 338 337 336 336 336 335 335 335 336 336 336 336 336 335 335 334 333 331 330 329 327 324 322 319 316 313 309 305 300 295 291 285 281 277 272 268 263 259 256
331 326 328 329 330 330 330 331 332 333 333 334 334 334 334 334 334 334 334 334 333 332 330 329 327 326 324 321 318 315 311 307 303 298 294 290 284 280 275 270 265 261 258
312 311 316 319 321 321 322 324 327 329 330 331 332 332 332 332 332 332 333 333 332 332 330 329 328 327 325 323 320 316 313 310 306 302 298 294 289 283 279 273 267 262 259
301 300 305 310 312 313 315 317 319 322 325 327 328 330 330 330 330 330 331 331 331 331 331 329 328 327 327 325 323 319 315 312 309 306 302 298 292 287 282 277 270 264 260
293 293 298 305 308 309 311 313 315 317 321 325 326 327 327 328 329 329 329 330 330 330 330 330 329 328 327 326 324 321 317 315 312 309 306 302 297 292 285 279 272 266 262
286 290 295 301 304 307 309 311 312 315 318 321 322 323 324 325 327 327 328 329 330 330 330 330 329 328 327 326 324 321 319 317 314 312 309 306 301 296 289 283 276 268 263
283 287 291 296 301 305 307 309 310 312 315 318 321 322 323 324 325 326 326 327 328 330 330 330 329 329 328 326 325 323 320 318 315 312 310 307 304 299 293 287 280 272 264
281 286 289 293 297 301 305 307 308 310 313 316 319 321 322 323 324 325 326 327 328 329 330 329 329 329 329 327 325 323 321 319 316 314 312 309 306 302 296 289 283 276 267
282 286 289 292 296 299 302 305 307 309 311 314 317 319 321 321 321 322 324 325 327 328 329 329 328 329 328 327 325 323 321 319 318 317 315 312 309 304 298 292 286 280 272
282 286 290 292 294 297 300 303 306 308 310 312 314 316 319 319 320 321 322 324 325 327 327 327 327 327 328 327 326 324 322 320 319 318 317 315 311 306 301 295 289 283 276
284 286 288 290 293 296 299 301 304 307 309 311 312 313 315 317 318 320 322 323 324 325 326 326 326 326 326 326 326 324 322 320 319 319 318 317 313 308 303 298 293 285 278
283 286 288 289 292 294 298 300 301 305 308 310 312 312 313 315 316 317 319 321 321 322 324 324 325 325 325 325 325 323 322 321 320 319 318 317 315 311 306 302 297 288 280
282 285 287 289 290 292 296 299 301 303 305 308 309 310 311 312 315 317 319 320 320 321 322 322 323 323 323 323 323 323 321 320 320 320 319 317 315 312 308 303 300 291 284
Height
5861 5860 5862 5864 5865 5865 5865 5864 5863 5862 5861 5860 5859 5858 5857 5856 5854 5853 5851 5849 5848 5846 5845 5844 5843 5842 5841 5841 5840 5840 5840 5839 5839 5839 5840 5840 5841 5841 5842 5843 5845 5847 5848
5859 5859 5860 5861 5862 5862 5862 5862 5860 5859 5858 5857 5856 5854 5853 5851 5850 5848 5847 5845 5843 5842 5841 5839 5838 5837 5836 5835 5834 5834 5833 5833 5833 5833 5833 5834 5835 5835 5836 5837 5838 5840 5842
5859 5859 5860 5860 5860 5860 5860 5859 5858 5856 5855 5853 5852 5851 5849 5848 5846 5844 5843 5841 5839 5838 5836 5834 5833 5832 5830 5829 5828 5827 5827 5827 5827 5827 5827 5827 5828 5828 5829 5830 5831 5832 5834
5858 5859 5859 5859 5859 5858 5857 5856 5854 5853 5851 5850 5849 5848 5846 5845 5843 5841 5839 5837 5835 5833 5831 5829 5828 5826 5825 5824 5822 5821 5820 5820 5819 5819 5819 5820 5820 5821 5822 5823 5824 5825 5827
5858 5858 5858 5857 5857 5856 5855 5854 5852 5851 5849 5848 5847 5845 5843 5842 5839 5837 5835 5833 5831 5829 5827 5825 5823 5821 5819 5818 5816 5815 5814 5813 5812 5811 5811 5811 5812 5812 5813 5814 5815 5817 5819
5857 5856 5856 5856 5855 5854 5853 5852 5851 5849 5848 5846 5844 5842 5840 5838 5836 5834 5831 5829 5827 5825 5823 5820 5818 5816 5814 5812 5810 5808 5807 5805 5804 5803 5802 5802 5802 5803 5804 5805 5806 5808 5810
5856 5856 5855 5855 5854 5853 5852 5851 5849 5848 5846 5844 5842 5840 5838 5835 5833 5830 5828 5826 5823 5821 5818 5816 5813 5810 5808 5805 5803 5801 5799 5797 5796 5795 5794 5793 5793 5793 5794 5796 5797 5798 5800
5856 5855 5855 5854 5853 5852 5851 5850 5848 5846 5844 5842 5840 5837 5835 5833 5830 5827 5825 5822 5819 5816 5814 5810 5807 5804 5801 5799 5796 5793 5791 5789 5788 5786 5785 5784 5784 5784 5784 5785 5787 5788 5790
5855 5854 5854 5853 5852 5851 5850 5848 5846 5844 5841 5839 5837 5835 5832 5830 5827 5824 5821 5818 5815 5812 5809 5805 5802 5798 5795 5792 5789 5786 5783 5781 5779 5777 5776 5775 5774 5773 5774 5775 5776 5778 5780
5853 5853 5852 5851 5850 5849 5848 5846 5844 5841 5839 5837 5835 5832 5830 5827 5824 5821 5818 5814 5811 5807 5804 5800 5796 5792 5788 5785 5781 5778 5775 5772 5770 5768 5766 5765 5764 5763 5763 5764 5765 5767 5769
5852 5851 5850 5849 5849 5847 5846 5844 5842 5840 5838 5835 5833 5830 5827 5824 5821 5818 5814 5810 5807 5803 5798 5794 5790 5786 5781 5777 5774 5770 5766 5764 5761 5759 5757 5755 5754 5753 5752 5753 5753 5755 5757
5850 5849 5848 5848 5847 5845 5843 5842 5840 5838 5836 5833 5831 5828 5825 5822 5818 5814 5810 5806 5802 5798 5793 5788 5783 5779 5774 5770 5766 5762 5758 5755 5752 5749 5747 5745 5743 5742 5742 5742 5742 5743 5745
5847 5847 5846 5845 5844 5843 5842 5840 5838 5836 5833 5831 5828 5825 5822 5818 5815 5811 5806 5802 5797 5792 5787 5782 5777 5772 5767 5762 5758 5754 5749 5746 5742 5740 5737 5735 5733 5732 5731 5730 5731 5731 5733
5845 5844 5844 5843 5842 5841 5839 5837 5835 5833 5831 5828 5825 5822 5819 5815 5811 5807 5802 5797 5792 5787 5782 5776 5771 5766 5760 5755 5750 5745 5741 5737 5733 5730 5727 5724 5722 5721 5720 5719 5719 5719 5720
5842 5842 5841 5840 5839 5838 5836 5834 5833 5830 5828 5825 5822 5819 5815 5811 5807 5802 5798 5793 5787 5782 5776 5770 5765 5759 5753 5748 5742 5737 5732 5728 5724 5720 5717 5714 5712 5710 5708 5707 5707 5707 5708
5840 5839 5838 5838 5837 5835 5833 5832 5830 5827 5825 5822 5819 5815 5811 5807 5803 5798 5793 5787 5782 5776 5770 5764 5758 5752 5747 5741 5735 5729 5724 5719 5715 5711 5707 5704 5701 5699 5697 5695 5695 5695 5696
5837 5836 5835 5835 5833 5832 5830 5828 5826 5824 5821 5818 5814 5811 5807 5802 5798 5793 5788 5782 5776 5770 5764 5758 5752 5746 5740 5733 5727 5721 5716 5711 5706 5702 5698 5694 5690 5688 5685 5684 5683 5683 5683
5834 5833 5832 5831 5830 5828 5826 5824 5822 5820 5817 5813 5810 5806 5802 5798 5793 5788 5782 5777 5771 5765 5758 5752 5746 5739 5733 5726 5720 5713 5708 5702 5697 5693 5688 5684 5680 5677 5674 5672 5671 5670 5671
5830 5829 5828 5827 5826 5824 5822 5820 5818 5815 5812 5809 5805 5801 5797 5792 5787 5782 5777 5771 5765 5758 5752 5746 5739 5732 5726 5719 5712 5706 5700 5694 5689 5684 5679 5675 5671 5667 5663 5661 5660 5659 5659
5826 5825 5824 5823 5821 5819 5817 5815 5813 5810 5807 5803 5800 5796 5791 5787 5782 5776 5771 5765 5759 5752 5746 5739 5732 5726 5719 5712 5705 5699 5693 5687 5682 5676 5671 5666 5662 5657 5654 5651 5649 5648 5647
5821 5820 5819 5818 5816 5814 5812 5810 5807 5804 5801 5798 5794 5790 5785 5780 5775 5770 5765 5759 5752 5746 5739 5733 5726 5719 5712 5705 5698 5692 5686 5680 5674 5669 5663 5658 5653 5649 5645 5642 5640 5638 5637
5816 5815 5813 5812 5811 5809 5807 5804 5802 5799 5795 5792 5788 5783 5779 5774 5769 5763 5758 5752 5746 5739 5732 5725 5719 5712 5705 5698 5691 5685 5678 5673 5667 5661 5655 5650 5645 5640 5637 5633 5631 5629 5628
5810 5809 5808 5806 5805 5803 5801 5798 5795 5792 5789 5785 5781 5776 5772 5767 5762 5756 5751 5745 5739 5732 5725 5718 5712 5705 5698 5691 5684 5678 5671 5665 5659 5654 5648 5642 5637 5633 5629 5625 5622 5620 5619
5804 5803 5801 5800 5798 5796 5794 5791 5788 5785 5782 5778 5774 5769 5764 5759 5754 5749 5743 5737 5731 5724 5718 5711 5705 5698 5691 5684 5677 5670 5664 5658 5652 5646 5641 5635 5630 5625 5621 5618 5615 5612 5611
5797 5796 5795 5793 5791 5789 5787 5784 5781 5778 5774 5770 5766 5761 5757 5752 5747 5741 5735 5729 5723 5717 5710 5704 5697 5690 5683 5676 5670 5663 5657 5651 5645 5639 5634 5628 5623 5618 5614 5611 5607 5605 5603
5790 5789 5788 5786 5784 5782 5779 5776 5773 5770 5766 5762 5758 5753 5749 5744 5739 5733 5727 5721 5715 5709 5702 5696 5689 5682 5675 5668 5662 5656 5649 5643 5638 5632 5627 5622 5617 5612 5608 5605 5601 5599 5597